SCP
-0 -0 0 0 0 0 0 0 0 0 0 0 0 0 0 0 0 0 0 0 0 0
0 0 0 0 0 0 0 0 0 0 0 0 0 0 0 0 0 0 0 0 0 0
0 0 0 0 0 0 0 0 0 0 0 0 0 0 0 0 0 0 0 0 0 0
0 0 1 0 0 0 0 0 0 0 0 0 0 0 0 0 0 0 0 0 0 0
0 0 0 1 0 0 0 0 0 0 0 0 0 0 0 0 0 0 0 0 0 0
0 1 1 0 0 0 0 0 0 0 0 0 0 0 0 0 0 0 0 0 0 0
1 1 1 1 1 0 0 1 0 0 0 0 0 0 0 0 0 0 0 0 0 0
2 1 2 1 0 0 0 0 0 0 0 0 0 0 0 0 0 0 0 0 0 0
1 2 2 1 0 0 0 0 0 -0 0 0 0 0 0 0 0 0 0 0 0 0
1 1 2 1 1 0 0 0 0 0 0 0 0 0 0 0 0 0 0 1 0 0
2 2 1 2 1 1 0 0 0 0 0 0 0 0 0 0 0 0 0 0 0 0
2 2 2 2 1 2 0 0 0 0 0 0 0 0 0 0 0 0 0 0 0 0
2 2 1 2 1 0 0 0 0 0 0 0 0 0 0 0 0 0 0 0 0 0
1 1 1 1 1 1 1 0 0 0 0 0 0 0 0 0 1 0 0 0 0 0
Wind_Speed_500mb
56 50 45 39 34 33 32 26 23 22 22 23 20 17 14 12 13 14 13 12 13 16
63 60 53 44 37 35 34 32 28 25 23 23 22 21 21 22 22 21 20 20 22 22
71 64 56 48 42 37 38 36 32 29 26 26 24 24 27 27 27 26 24 24 26 28
80 71 62 57 50 42 42 39 36 31 30 30 26 26 26 25 25 25 23 23 20 23
90 79 74 71 63 45 42 47 41 36 34 34 32 29 27 25 26 24 21 18 20 24
97 93 88 83 76 64 46 50 46 41 37 36 34 31 30 26 25 23 23 24 27 29
104 101 99 96 80 66 53 47 48 45 41 37 33 31 31 29 28 25 27 31 33 36
103 99 95 95 87 73 56 39 45 49 46 40 40 35 32 31 29 31 33 32 34 41
91 90 90 94 95 87 78 82 61 65 56 51 47 36 33 34 35 34 38 40 39 44
69 75 79 84 88 92 77 49 55 69 61 67 58 41 35 37 39 43 43 47 52 50
55 64 66 71 82 94 81 57 67 64 67 69 62 48 36 38 43 50 54 50 53 53
37 46 55 63 77 81 66 53 67 67 68 62 56 46 44 47 43 54 55 57 52 45
22 34 44 56 58 74 64 64 70 63 43 41 41 45 56 49 62 63 50 52 47 41
26 27 26 46 53 72 45 46 41 40 53 30 31 53 43 60 63 48 41 47 41 45
Wind_Direction_500mb
226 225 224 227 228 228 228 230 233 238 232 230 240 240 229 243 254 254 248 258 263 280
226 225 224 227 230 230 226 227 234 231 230 234 241 238 238 246 249 253 252 257 265 277
228 226 225 225 229 236 232 227 229 230 233 238 242 244 247 251 248 255 260 264 275 281
230 227 228 234 228 222 234 233 230 233 237 240 243 245 247 249 251 252 258 268 278 287
231 229 227 234 237 235 234 236 233 231 235 239 242 244 248 247 251 254 257 268 284 296
234 231 233 235 231 229 232 239 240 238 236 238 243 245 243 239 238 244 261 273 285 291
239 236 235 237 231 225 239 234 243 242 240 241 244 242 242 237 240 248 262 277 284 287
247 244 239 236 226 215 215 253 264 255 247 242 241 239 239 240 245 257 266 273 283 288
256 252 246 240 234 213 205 211 251 255 252 251 245 244 242 242 248 255 269 278 283 288
258 258 253 246 238 212 209 218 225 232 242 245 247 244 242 245 253 263 271 281 284 283
261 255 255 250 242 220 214 226 225 221 230 242 244 242 243 249 260 275 280 283 287 286
266 257 250 246 237 217 219 233 213 215 234 237 237 239 238 248 264 274 280 291 288 282
259 258 256 250 239 213 222 233 220 227 240 246 250 245 247 257 276 266 276 279 279 280
229 221 223 236 229 211 231 222 224 222 247 250 262 264 257 283 272 268 269 269 275 284
Wind_Speed_850mb
56 50 45 39 34 33 32 26 23 22 22 23 20 17 14 12 13 14 13 12 13 16
63 60 53 44 37 35 34 32 28 25 23 23 22 21 21 22 22 21 20 20 22 22
71 64 56 48 42 37 38 36 32 29 26 26 24 24 27 27 27 26 24 24 26 28
80 71 62 57 50 42 42 39 36 31 30 30 26 26 26 25 25 25 23 23 20 23
90 79 74 71 63 45 42 47 41 36 34 34 32 29 27 25 26 24 21 18 20 24
97 93 88 83 76 64 46 50 46 41 37 36 34 31 30 26 25 23 23 24 27 29
104 101 99 96 80 66 53 47 48 45 41 37 33 31 31 29 28 25 27 31 33 36
103 99 95 95 87 73 56 39 45 49 46 40 40 35 32 31 29 31 33 32 34 41
91 90 90 94 95 87 78 82 61 65 56 51 47 36 33 34 35 34 38 40 39 44
69 75 79 84 88 92 77 49 55 69 61 67 58 41 35 37 39 43 43 47 52 50
55 64 66 71 82 94 81 57 67 64 67 69 62 48 36 38 43 50 54 50 53 53
37 46 55 63 77 81 66 53 67 67 68 62 56 46 44 47 43 54 55 57 52 45
22 34 44 56 58 74 64 64 70 63 43 41 41 45 56 49 62 63 50 52 47 41
26 27 26 46 53 72 45 46 41 40 53 30 31 53 43 60 63 48 41 47 41 45
Wind_Direction_850mb
226 225 224 227 228 228 228 230 233 238 232 230 240 240 229 243 254 254 248 258 263 280
226 225 224 227 230 230 226 227 234 231 230 234 241 238 238 246 249 253 252 257 265 277
228 226 225 225 229 236 232 227 229 230 233 238 242 244 247 251 248 255 260 264 275 281
230 227 228 234 228 222 234 233 230 233 237 240 243 245 247 249 251 252 258 268 278 287
231 229 227 234 237 235 234 236 233 231 235 239 242 244 248 247 251 254 257 268 284 296
234 231 233 235 231 229 232 239 240 238 236 238 243 245 243 239 238 244 261 273 285 291
239 236 235 237 231 225 239 234 243 242 240 241 244 242 242 237 240 248 262 277 284 287
247 244 239 236 226 215 215 253 264 255 247 242 241 239 239 240 245 257 266 273 283 288
256 252 246 240 234 213 205 211 251 255 252 251 245 244 242 242 248 255 269 278 283 288
258 258 253 246 238 212 209 218 225 232 242 245 247 244 242 245 253 263 271 281 284 283
261 255 255 250 242 220 214 226 225 221 230 242 244 242 243 249 260 275 280 283 287 286
266 257 250 246 237 217 219 233 213 215 234 237 237 239 238 248 264 274 280 291 288 282
259 258 256 250 239 213 222 233 220 227 240 246 250 245 247 257 276 266 276 279 279 280
229 221 223 236 229 211 231 222 224 222 247 250 262 264 257 283 272 268 269 269 275 284